Location: Poughquag
(41.6090°N, 73.6820°W)
Time: 16:14:21
(UTC-05:00)

S-56A Canister/Altair - Pass Details

Date: 29 November 2023
Orbit: 640 x 2488 km, 38.9° (Epoch: 26 February)

Event Time Altitude Azimuth Distance (km) Brightness Sun altitude
Rises 17:43:53 0° 277° (W) 3,362 12.1 -14.3°
Reaches altitude 10° 17:46:08 10° 271° (W) 2,586 11.5 -14.7°
Maximum altitude 17:51:59 46° 199° (SSW) 1,506 9.2 -15.7°
Drops below altitude 10° 18:00:38 10° 130° (SE) 3,780 10.7 -17.3°
Enters shadow 18:03:57 - 126° (SE) 4,870 11.2 -17.9°
